Location: Waltman Observatory
(32.5145°N, 90.4450°W)
Time: 10:37:38
(UTC-05:00)

Amateur Radio Satellites - All Passes

Search period start: 03 July 2015 10:07
Search period end: 04 July 2015 10:07
Location: Waltman Observatory, 32.5145°N, 90.4450°W

Satellite Date Start Highest point End Downlink Frequencies (MHz)
Time Altitude Azimuth
TIGRISAT 03 Jul 10:11:58 10:15:21 23° 72° (ENE) 10:18:47 435.000
DOVE 4 03 Jul 10:17:58 10:21:34 28° 287° (WNW) 10:25:07 437.250
DANDE 03 Jul 10:18:49 10:23:05 15° 287° (WNW) 10:26:29 436.750
QB50P1 03 Jul 10:20:24 10:21:41 11° 69° (ENE) 10:23:13 145.935-145.965
DX 1 03 Jul 10:30:44 10:32:09 12° 91° (E) 10:33:51 434.975-435.025
NANOSAT C BR1 03 Jul 10:33:44 10:36:23 17° 70° (ENE) 10:39:10 145.865
CUBEBUG 2 03 Jul 10:33:59 10:38:12 79° 101° (ESE) 10:42:32 437.445
SEEDS 03 Jul 10:34:25 10:38:00 26° 287° (WNW) 10:41:29 437.485
DUCHIFAT 1 03 Jul 10:40:46 10:43:47 20° 71° (ENE) 10:46:56 145.980
ZACube-1 03 Jul 10:42:24 10:46:34 56° 100° (E) 10:50:48 437.345
Cosmos 2499 03 Jul 10:43:27 10:49:53 39° 90° (E) 10:56:23 435.465 / 435.565
POLYITAN 1 03 Jul 10:43:46 10:47:04 23° 72° (ENE) 10:50:27 437.675
AAUSAT CUBESAT 2 03 Jul 10:49:03 10:52:35 26° 287° (WNW) 10:56:02 437.432
UNISAT 6 03 Jul 10:50:05 10:54:23 74° 78° (ENE) 10:58:40 437.425
UKube-1 03 Jul 10:52:17 10:55:26 20° 95° (E) 10:58:42 .
Oscar 11 03 Jul 10:54:27 10:58:42 55° 284° (WNW) 11:02:56 145.826/435.025
AISAT 03 Jul 11:01:35 11:04:05 15° 93° (E) 11:06:48 437.250
BUGSAT 1 03 Jul 11:03:28 11:06:50 24° 72° (ENE) 11:10:16 437.445
HUMSAT D 03 Jul 11:12:37 11:16:41 51° 100° (E) 11:20:48 437.325/437.525
QB50P2 03 Jul 11:12:46 11:16:54 53° 75° (ENE) 11:21:02 145.880/145.840
DELFI C3 03 Jul 11:13:41 11:17:33 43° 285° (WNW) 11:21:25 145.870
POPSAT HIP 1 03 Jul 11:13:51 11:17:59 52° 75° (ENE) 11:22:08 437.405
CINEMA 3 03 Jul 11:14:45 11:17:15 15° 289° (WNW) 11:19:37 145.822/145.860
COMPASS 1 03 Jul 11:15:53 11:17:20 11° 291° (WNW) 11:18:33 437.405
FUNcube-1 03 Jul 11:19:16 11:23:21 50° 284° (WNW) 11:27:31 145.935
PHONESAT 2.4 03 Jul 11:23:55 11:26:50 25° 350° (N) 11:29:45 2401.200-2431.200
CUBEBUG 1 03 Jul 11:24:05 11:26:16 14° 92° (E) 11:28:39 437.445
VERMONT LUNAR 03 Jul 11:27:02 11:29:26 20° 7° (N) 11:31:51 437.305
50 SAT 03 Jul 11:27:20 11:30:56 35° 98° (E) 11:34:34 437.505
ESTCUBE 1 03 Jul 11:28:06 11:31:23 20° 94° (E) 11:34:47 437.505/2401.250
UWE-3 03 Jul 11:28:29 11:32:09 28° 287° (WNW) 11:35:49 435.000/436.395/437.385
HO-68 03 Jul 11:29:09 11:33:44 18° 298° (WNW) 11:37:57 435.675
GONETS M04 03 Jul 11:33:44 11:39:43 19° 293° (WNW) 11:45:11
ANTELSAT 03 Jul 11:35:09 11:39:00 30° 263° (W) 11:42:45 437.575/2403.000
TIGRISAT 03 Jul 11:48:38 11:52:03 22° 265° (W) 11:55:20 435.000
VELOX 1 03 Jul 11:49:51 11:54:12 58° 100° (E) 11:58:32 145.980
QB50P1 03 Jul 11:53:04 11:57:11 47° 261° (W) 12:01:17 145.935-145.965
RS-15 03 Jul 11:59:22 12:11:04 66° 58° (ENE) 12:23:15 29.354- 29.394
DX 1 03 Jul 12:04:32 12:08:42 45° 286° (WNW) 12:12:48 434.975-435.025
NANOSAT C BR1 03 Jul 12:08:11 12:12:00 31° 263° (W) 12:15:46 145.865
DUCHIFAT 1 03 Jul 12:15:51 12:19:28 26° 264° (W) 12:23:00 145.980
POLYITAN 1 03 Jul 12:19:28 12:22:54 23° 265° (W) 12:26:12 437.675
UKube-1 03 Jul 12:27:55 12:31:34 26° 288° (WNW) 12:35:07 .
SPROUT 03 Jul 12:30:10 12:33:29 22° 95° (E) 12:36:54 437.525
AISAT 03 Jul 12:36:47 12:40:49 35° 287° (WNW) 12:44:48 437.250
Cosmos 2499 03 Jul 12:37:11 12:43:10 28° 286° (WNW) 12:48:57 435.465 / 435.565
BUGSAT 1 03 Jul 12:38:55 12:42:14 22° 265° (W) 12:45:28 437.445
HUMSAT D 03 Jul 12:51:26 12:52:02 10° 291° (WNW) 12:52:22 437.325/437.525
CUBEBUG 1 03 Jul 12:58:46 13:02:49 38° 286° (WNW) 13:06:48 437.445
PHONESAT 2.4 03 Jul 13:02:42 13:05:31 22° 7° (N) 13:08:19 2401.200-2431.200
50 SAT 03 Jul 13:03:27 13:05:17 13° 290° (WNW) 13:06:55 437.505
VERMONT LUNAR 03 Jul 13:03:42 13:06:47 51° 22° (NNE) 13:09:54 437.305
ESTCUBE 1 03 Jul 13:04:20 13:08:17 29° 288° (WNW) 13:12:09 437.505/2401.250
Oscar 19 03 Jul 13:12:00 13:16:38 36° 72° (ENE) 13:21:19 437.125/150
TISAT 1 03 Jul 13:16:18 13:20:23 53° 100° (E) 13:24:27 437.305
YUBILEINY 03 Jul 13:20:55 13:23:29 12° 62° (ENE) 13:26:54 435.215
ITAMSAT 1 03 Jul 13:24:00 13:25:39 12° 66° (ENE) 13:27:38 435.822/435.867
VELOX 1 03 Jul 13:29:39 13:30:18 10° 293° (WNW) 13:30:39 145.980
SPROUT 03 Jul 14:06:05 14:09:31 23° 288° (WNW) 14:12:49 437.525
RS-15 03 Jul 14:12:58 14:23:00 31° 253° (WSW) 14:32:47 29.354- 29.394
PHONESAT 2.4 03 Jul 14:40:32 14:43:58 56° 23° (NNE) 14:47:24 2401.200-2431.200
VERMONT LUNAR 03 Jul 14:41:03 14:43:35 22° 216° (SW) 14:46:06 437.305
BEESAT 03 Jul 14:43:15 14:48:04 75° 103° (ESE) 14:52:51 436.000
Gurwin Techsat 1B 03 Jul 14:46:21 14:51:39 88° 78° (ENE) 14:57:00 435.225
Oscar 19 03 Jul 14:52:12 14:56:06 21° 266° (W) 14:59:50 437.125/150
AO-7 03 Jul 14:54:02 15:00:25 26° 62° (ENE) 15:07:05 29.400- 29.500
SWISSCUBE 03 Jul 14:58:42 15:03:29 67° 284° (WNW) 15:08:14 437.505
ITAMSAT 1 03 Jul 14:59:26 15:04:37 70° 258° (WSW) 15:09:52 435.822/435.867
ITUPSAT 1 03 Jul 15:03:25 15:08:13 67° 284° (WNW) 15:12:58 437.325
YUBILEINY 03 Jul 15:13:14 15:22:01 79° 83° (E) 15:30:49 435.215
Cosmos 2491 03 Jul 15:27:41 15:36:15 61° 92° (E) 15:44:55 435.465 / 435.565
JAS-2 03 Jul 15:30:06 15:35:05 51° 74° (ENE) 15:40:12 435.910
STARS 03 Jul 15:35:23 15:38:52 24° 96° (E) 15:42:26 437.465
ISS 03 Jul 15:45:15 15:48:19 38° 40° (NE) 15:51:22 145.825
PCSat 03 Jul 15:47:41 15:52:56 57° 112° (ESE) 15:58:16 145.827
AIST 1 03 Jul 15:50:11 15:54:25 51° 94° (E) 15:58:43
HORYU 2 03 Jul 16:10:26 16:14:51 89° 77° (ENE) 16:19:17 437.375
JUGNU 03 Jul 16:13:07 16:16:23 15° 166° (SSE) 16:19:44 437.505
KKS-1 03 Jul 16:16:12 16:20:34 61° 285° (WNW) 16:24:54 437.445
PHONESAT 2.4 03 Jul 16:19:00 16:21:50 23° 216° (SW) 16:24:39 2401.200-2431.200
Cosmos 2504 03 Jul 16:24:17 16:30:04 23° 72° (ENE) 16:36:30 435.465 / 435.565
MOZHAYETS 4 03 Jul 16:27:00 16:29:20 14° 91° (E) 16:31:55
BEESAT 3 03 Jul 16:40:55 16:44:33 31° 56° (ENE) 16:48:09 437.485
AO-7 03 Jul 16:44:29 16:52:43 62° 257° (WSW) 17:00:58 29.400- 29.500
BEESAT 2 03 Jul 16:51:32 16:55:12 32° 56° (ENE) 16:58:51 435.950
STARS 03 Jul 17:11:43 17:15:14 23° 289° (WNW) 17:18:38 437.465
SO-50 03 Jul 17:12:41 17:17:20 88° 297° (WNW) 17:22:12 436.795
YUBILEINY 03 Jul 17:12:42 17:18:01 17° 277° (W) 17:22:44 435.215
JAS-2 03 Jul 17:18:13 17:20:44 13° 270° (W) 17:22:55 435.910
ISS 03 Jul 17:22:50 17:24:29 13° 233° (SW) 17:26:01 145.825
O/OREOS (USA 219) 03 Jul 17:25:43 17:29:21 24° 63° (ENE) 17:33:06 437.305
Cosmos 2491 03 Jul 17:26:45 17:33:46 24° 290° (WNW) 17:40:25 435.465 / 435.565
CUTE-I 03 Jul 17:28:44 17:32:02 17° 67° (ENE) 17:35:34 437.470
AIST 1 03 Jul 17:31:54 17:32:29 10° 289° (WNW) 17:32:46
PCSat 03 Jul 17:33:12 17:36:48 17° 309° (NW) 17:40:13 145.827
JUGNU 03 Jul 18:00:15 18:04:49 23° 175° (S) 18:09:24 437.505
Cubesat XI-IV 03 Jul 18:00:53 18:05:43 36° 72° (ENE) 18:10:38 437.490
MOZHAYETS 4 03 Jul 18:02:24 18:06:49 43° 286° (WNW) 18:11:12
AIST 2 03 Jul 18:02:52 18:06:55 47° 59° (ENE) 18:10:54 435.215
Cosmos 2504 03 Jul 18:16:15 18:23:55 59° 267° (W) 18:32:05 435.465 / 435.565
BEESAT 3 03 Jul 18:19:43 18:22:16 16° 250° (WSW) 18:24:38 437.485
CUBESAT XI-V 03 Jul 18:26:43 18:30:20 23° 94° (E) 18:34:02 437.345
BEESAT 2 03 Jul 18:30:28 18:33:01 16° 250° (WSW) 18:35:23 435.950
SRMSAT 03 Jul 18:50:44 18:54:50 19° 170° (S) 18:58:59 437.500
STRAND 1 03 Jul 18:58:02 19:01:03 16° 92° (E) 19:04:19 437.568
SO-50 03 Jul 18:58:03 18:58:43 10° 317° (NW) 18:59:06 436.795
O/OREOS (USA 219) 03 Jul 19:05:00 19:08:44 24° 257° (WSW) 19:12:21 437.305
CUTE-I 03 Jul 19:06:34 19:11:45 50° 260° (W) 19:16:58 437.470
PRISM 03 Jul 19:07:02 19:09:33 16° 93° (E) 19:12:15 437.425
BRITE-PL 03 Jul 19:12:08 19:15:58 20° 71° (ENE) 19:19:51 437.365/2234.400
DANDE 03 Jul 19:21:08 19:23:01 17° 75° (ENE) 19:24:53 436.750
Cubesat XI-IV 03 Jul 19:41:43 19:45:56 22° 266° (W) 19:50:00 437.490
DOVE 4 03 Jul 19:43:12 19:45:18 13° 70° (ENE) 19:47:37 437.250
AIST 2 03 Jul 19:43:49 19:45:05 11° 251° (WSW) 19:46:06 435.215
JUGNU 03 Jul 19:48:43 19:53:17 23° 185° (S) 19:57:49 437.505
GONETS M04 03 Jul 19:49:59 19:57:09 29° 72° (ENE) 20:04:35
HO-68 03 Jul 20:03:26 20:09:41 35° 68° (ENE) 20:16:04 435.675
CUBESAT XI-V 03 Jul 20:03:46 20:07:45 28° 288° (WNW) 20:11:39 437.345
CUSAT 1 03 Jul 20:05:52 20:08:07 25° 264° (W) 20:10:23 437.405
COMPASS 1 03 Jul 20:25:42 20:28:29 18° 71° (ENE) 20:31:25 437.405
GOMX 1 03 Jul 20:29:00 20:34:15 73° 76° (ENE) 20:39:13 467.674
CUTE 1.7 + AOD 2 03 Jul 20:31:42 20:35:29 35° 74° (ENE) 20:39:21 437.475
CINEMA 3 03 Jul 20:34:31 20:37:44 20° 72° (ENE) 20:41:00 145.822/145.860
CANX-2 03 Jul 20:34:44 20:38:42 43° 75° (ENE) 20:42:43 2200.000
STRAND 1 03 Jul 20:35:37 20:40:33 46° 287° (WNW) 20:45:24 437.568
SRMSAT 03 Jul 20:38:48 20:43:26 24° 180° (S) 20:48:05 437.500
PRISM 03 Jul 20:41:21 20:45:05 31° 287° (WNW) 20:48:44 437.425
BRITE-PL 03 Jul 20:48:55 20:54:14 44° 262° (W) 20:59:17 437.365/2234.400
AUBIESAT-1 03 Jul 21:16:32 21:20:26 32° 102° (ESE) 21:24:34 437.475
DOVE 4 03 Jul 21:17:51 21:22:45 54° 261° (W) 21:27:23 437.250
SEEDS 03 Jul 21:21:04 21:25:12 67° 259° (W) 21:29:22 437.485
CUBEBUG 2 03 Jul 21:27:59 21:31:57 36° 74° (ENE) 21:35:51 437.445
AAUSAT CUBESAT 2 03 Jul 21:34:23 21:38:29 70° 259° (W) 21:42:37 437.432
ZACube-1 03 Jul 21:34:35 21:38:00 25° 73° (ENE) 21:41:27 437.345
JUGNU 03 Jul 21:38:31 21:41:43 15° 194° (SSW) 21:44:48 437.505
Oscar 11 03 Jul 21:44:23 21:48:36 61° 76° (ENE) 21:52:52 145.826/435.025
UKube-1 03 Jul 21:45:24 21:45:55 10° 67° (ENE) 21:46:43 .
GONETS M04 03 Jul 21:46:03 21:54:20 50° 269° (W) 22:02:31
M-CUBED/EXP-1 PRIME 03 Jul 21:49:36 21:53:55 84° 287° (WNW) 21:58:31 437.505
HO-68 03 Jul 21:50:49 21:57:22 37° 262° (W) 22:03:49 435.675
DELFI C3 03 Jul 21:55:59 21:59:53 56° 76° (ENE) 22:03:49 145.870
COMPASS 1 03 Jul 22:00:26 22:03:59 27° 264° (W) 22:07:31 437.405
HUMSAT D 03 Jul 22:00:50 22:03:46 20° 72° (ENE) 22:06:50 437.325/437.525
CUTE 1.7 + AOD 2 03 Jul 22:09:13 22:11:34 14° 268° (W) 22:13:43 437.475
50 SAT 03 Jul 22:09:43 22:10:30 11° 70° (ENE) 22:11:31 437.505
FUNcube-1 03 Jul 22:10:15 22:14:28 68° 76° (ENE) 22:18:38 145.935
CINEMA 3 03 Jul 22:10:44 22:14:48 29° 263° (W) 22:18:39 145.822/145.860
CANX-2 03 Jul 22:13:27 22:14:54 11° 269° (W) 22:16:06 2200.000
UWE-3 03 Jul 22:20:31 22:24:47 63° 259° (W) 22:28:57 435.000/436.395/437.385
ESTCUBE 1 03 Jul 22:25:21 22:26:40 11° 68° (ENE) 22:28:16 437.505/2401.250
SRMSAT 03 Jul 22:27:56 22:32:02 19° 190° (S) 22:36:05 437.500
Cosmos 2499 03 Jul 22:30:20 22:38:16 72° 82° (E) 22:46:49 435.465 / 435.565
VELOX 1 03 Jul 22:43:10 22:47:00 30° 72° (ENE) 22:50:55 145.980
UNISAT 6 03 Jul 22:47:00 22:50:22 22° 95° (E) 22:53:53 437.425
AUBIESAT-1 03 Jul 22:51:50 22:54:59 20° 292° (WNW) 22:58:08 437.475
DX 1 03 Jul 22:55:04 22:59:28 84° 74° (ENE) 23:03:52 434.975-435.025
QB50P2 03 Jul 23:04:36 23:06:13 12° 92° (E) 23:08:05 145.880/145.840
POPSAT HIP 1 03 Jul 23:05:38 23:07:08 12° 91° (E) 23:08:56 437.405
CUBEBUG 2 03 Jul 23:06:19 23:08:47 14° 267° (W) 23:11:01 437.445
ZACube-1 03 Jul 23:11:07 23:14:20 20° 265° (W) 23:17:24 437.345
UKube-1 03 Jul 23:17:21 23:21:37 56° 259° (W) 23:25:53 .
SPROUT 03 Jul 23:22:29 23:23:14 11° 68° (ENE) 23:24:16 437.525
AISAT 03 Jul 23:29:19 23:33:47 73° 258° (WSW) 23:38:15 437.250
ANTELSAT 03 Jul 23:30:39 23:35:04 75° 101° (E) 23:39:34 437.575/2403.000
HUMSAT D 03 Jul 23:36:01 23:39:25 24° 265° (W) 23:42:42 437.325/437.525
50 SAT 03 Jul 23:41:11 23:44:48 39° 261° (W) 23:48:25 437.505
QB50P1 03 Jul 23:42:45 23:46:38 36° 98° (E) 23:50:32 145.935-145.965
TIGRISAT 03 Jul 23:43:23 23:47:46 80° 283° (WNW) 23:52:15 435.000
CUBEBUG 1 03 Jul 23:49:38 23:54:05 85° 258° (WSW) 23:58:32 437.445
NANOSAT C BR1 03 Jul 23:57:05 00:01:12 56° 100° (E) 00:05:19 145.865
ESTCUBE 1 03 Jul 23:58:40 00:03:07 55° 260° (W) 00:07:35 437.505/2401.250
DUCHIFAT 1 04 Jul 00:04:15 00:08:26 68° 101° (E) 00:12:35 145.980
TISAT 1 04 Jul 00:04:31 00:07:46 22° 72° (ENE) 00:11:07 437.305
POLYITAN 1 04 Jul 00:08:19 00:12:32 82° 101° (ESE) 00:16:45 437.675
VELOX 1 04 Jul 00:20:18 00:23:36 19° 266° (W) 00:26:45 145.980
UNISAT 6 04 Jul 00:23:25 00:27:07 26° 288° (WNW) 00:30:47 437.425
BUGSAT 1 04 Jul 00:24:39 00:28:42 77° 102° (ESE) 00:32:42 437.445
Cosmos 2499 04 Jul 00:25:34 00:30:55 18° 274° (W) 00:35:56 435.465 / 435.565
QB50P2 04 Jul 00:38:23 00:42:21 40° 286° (WNW) 00:46:17 145.880/145.840
POPSAT HIP 1 04 Jul 00:39:18 00:43:15 41° 286° (WNW) 00:47:11 437.405
PCSat 04 Jul 00:41:11 00:44:50 19° 52° (NE) 00:48:40 145.827
SPROUT 04 Jul 00:54:41 00:58:55 53° 260° (W) 01:03:09 437.525
QB50P1 04 Jul 01:19:53 01:22:12 14° 290° (WNW) 01:24:21 145.935-145.965
Oscar 19 04 Jul 01:28:58 01:32:21 18° 93° (E) 01:35:57 437.125/150
TISAT 1 04 Jul 01:39:59 01:43:27 23° 265° (W) 01:46:48 437.305
Cosmos 2491 04 Jul 01:45:04 01:51:24 23° 69° (ENE) 01:58:07 435.465 / 435.565
BEESAT 04 Jul 01:45:10 01:49:45 50° 74° (ENE) 01:54:22 436.000
SO-50 04 Jul 01:49:05 01:53:12 26° 53° (NE) 01:57:19 436.795
SWISSCUBE 04 Jul 02:00:26 02:05:13 82° 77° (ENE) 02:10:02 437.505
ITUPSAT 1 04 Jul 02:05:25 02:10:12 83° 77° (ENE) 02:15:02 437.325
YUBILEINY 04 Jul 02:16:08 02:20:42 16° 83° (E) 02:25:54 435.215
RS-15 04 Jul 02:16:54 02:27:33 66° 113° (ESE) 02:38:31 29.354- 29.394
PCSat 04 Jul 02:23:22 02:28:37 52° 249° (WSW) 02:33:50 145.827
STARS 04 Jul 02:29:32 02:31:21 13° 68° (ENE) 02:33:24 437.465
Oscar 19 04 Jul 03:07:06 03:11:54 40° 287° (WNW) 03:16:39 437.125/150
Gurwin Techsat 1B 04 Jul 03:07:22 03:12:32 52° 100° (E) 03:17:42 435.225
KKS-1 04 Jul 03:09:30 03:13:55 68° 76° (ENE) 03:18:20 437.445
ITAMSAT 1 04 Jul 03:17:00 03:22:10 62° 101° (E) 03:27:18 435.822/435.867
BEESAT 04 Jul 03:25:37 03:27:55 13° 269° (W) 03:29:56 436.000
SO-50 04 Jul 03:29:24 03:33:45 31° 248° (WSW) 03:37:55 436.795
AIST 1 04 Jul 03:39:28 03:43:46 62° 266° (W) 03:48:00
Cosmos 2491 04 Jul 03:40:23 03:49:00 63° 267° (W) 03:57:30 435.465 / 435.565
STARS 04 Jul 04:03:12 04:07:27 46° 261° (W) 04:11:41 437.465
HORYU 2 04 Jul 04:06:45 04:10:21 24° 96° (E) 04:14:02 437.375
YUBILEINY 04 Jul 04:08:00 04:16:42 79° 277° (W) 04:25:25 435.215
JAS-2 04 Jul 04:26:18 04:33:07 77° 102° (ESE) 04:40:41 435.910
RS-15 04 Jul 04:31:13 04:40:49 32° 315° (NW) 04:50:24 29.354- 29.394
Gurwin Techsat 1B 04 Jul 04:48:49 04:52:08 16° 293° (WNW) 04:55:14 435.225
AO-7 04 Jul 04:51:10 04:59:27 63° 103° (ESE) 05:07:42 29.400- 29.500
ITAMSAT 1 04 Jul 04:58:37 05:01:13 13° 294° (WNW) 05:03:30 435.822/435.867
MOZHAYETS 4 04 Jul 04:59:17 05:03:51 81° 258° (WSW) 05:08:27
Cosmos 2504 04 Jul 04:59:24 05:03:53 19° 86° (E) 05:08:43 435.465 / 435.565
CUBESAT XI-V 04 Jul 05:26:55 05:29:14 14° 69° (ENE) 05:31:48 437.345
HORYU 2 04 Jul 05:43:18 05:46:55 24° 289° (WNW) 05:50:26 437.375
STRAND 1 04 Jul 06:10:03 06:12:54 16° 67° (ENE) 06:16:00 437.568
YUBILEINY 04 Jul 06:12:00 06:15:13 12° 298° (WNW) 06:17:39 435.215
JAS-2 04 Jul 06:13:30 06:17:46 17° 293° (WNW) 06:21:52 435.910
Cubesat XI-IV 04 Jul 06:23:24 06:27:20 21° 94° (E) 06:31:25 437.490
BEESAT 3 04 Jul 06:30:04 06:32:45 18° 111° (ESE) 06:35:34 437.485
BEESAT 2 04 Jul 06:41:31 06:44:19 19° 111° (ESE) 06:47:16 435.950
AO-7 04 Jul 06:45:08 06:51:43 26° 298° (WNW) 06:58:00 29.400- 29.500
ISS 04 Jul 06:47:12 06:47:49 11° 127° (SE) 06:48:37 145.825
Cosmos 2504 04 Jul 06:49:37 06:56:47 58° 279° (W) 07:03:49 435.465 / 435.565
RS-15 04 Jul 06:57:41 06:58:36 10° 348° (NNW) 06:59:09 29.354- 29.394
CUBESAT XI-V 04 Jul 07:01:46 07:06:19 48° 261° (W) 07:10:52 437.345
VERMONT LUNAR 04 Jul 07:12:15 07:15:16 54° 150° (SSE) 07:18:20 437.305
CUSAT 1 04 Jul 07:23:12 07:28:56 29° 96° (E) 07:33:46 437.405
PRISM 04 Jul 07:26:05 07:30:14 82° 256° (WSW) 07:34:27 437.425
PHONESAT 2.4 04 Jul 07:26:33 07:27:07 10° 140° (SE) 07:27:48 2401.200-2431.200
CUTE-I 04 Jul 07:28:11 07:33:34 84° 286° (WNW) 07:38:55 437.470
O/OREOS (USA 219) 04 Jul 07:32:41 07:37:05 66° 107° (ESE) 07:41:31 437.305
STRAND 1 04 Jul 07:46:44 07:51:43 51° 260° (W) 07:56:44 437.568
AIST 2 04 Jul 07:56:30 08:00:13 31° 113° (ESE) 08:04:02 435.215
AUBIESAT-1 04 Jul 08:02:07 08:03:57 15° 66° (ENE) 08:05:56 437.475
Cubesat XI-IV 04 Jul 08:02:37 08:07:35 38° 288° (WNW) 08:12:28 437.490
BEESAT 3 04 Jul 08:06:53 08:10:29 30° 304° (NW) 08:14:07 437.485
BEESAT 2 04 Jul 08:18:35 08:22:12 29° 304° (NW) 08:25:49 435.950
ISS 04 Jul 08:20:46 08:23:56 48° 318° (NW) 08:27:05 145.825
DANDE 04 Jul 08:22:31 08:30:16 75° 97° (E) 08:36:21 436.750
CANX-2 04 Jul 08:26:57 08:27:58 11° 90° (E) 08:29:17 2200.000
M-CUBED/EXP-1 PRIME 04 Jul 08:34:37 08:37:48 52° 72° (ENE) 08:41:05 437.505
GOMX 1 04 Jul 08:36:32 08:39:57 25° 96° (E) 08:43:26 467.674
GONETS M04 04 Jul 08:44:51 08:52:44 40° 89° (E) 09:00:44
VERMONT LUNAR 04 Jul 08:49:33 08:52:18 28° 344° (NNW) 08:55:05 437.305
BRITE-PL 04 Jul 08:58:57 09:03:13 87° 282° (WNW) 09:07:21 437.365/2234.400
PHONESAT 2.4 04 Jul 09:01:20 09:04:45 75° 152° (SSE) 09:08:12 2401.200-2431.200
CUSAT 1 04 Jul 09:05:17 09:11:29 34° 281° (W) 09:16:21 437.405
SEEDS 04 Jul 09:10:14 09:13:52 27° 96° (E) 09:17:33 437.485
RS-15 04 Jul 09:12:53 09:18:28 15° 25° (NNE) 09:24:45 29.354- 29.394
DOVE 4 04 Jul 09:21:39 09:25:43 54° 100° (E) 09:29:49 437.250
AAUSAT CUBESAT 2 04 Jul 09:22:16 09:25:43 25° 95° (E) 09:29:14 437.432
HO-68 04 Jul 09:22:41 09:29:41 56° 101° (E) 09:36:43 435.675
CUBEBUG 2 04 Jul 09:26:19 09:26:36 10° 91° (E) 09:27:13 437.445
AIST 2 04 Jul 09:35:40 09:38:52 20° 308° (NW) 09:41:59 435.215
AUBIESAT-1 04 Jul 09:36:02 09:38:36 20° 260° (W) 09:41:08 437.475
Oscar 11 04 Jul 09:37:28 09:40:06 16° 93° (E) 09:42:54 145.826/435.025
DELFI C3 04 Jul 09:42:03 09:42:59 11° 91° (E) 09:44:12 145.870
UNISAT 6 04 Jul 09:44:06 09:45:09 11° 69° (ENE) 09:46:27 437.425
COMPASS 1 04 Jul 09:47:32 09:51:44 64° 100° (E) 09:55:55 437.405
CUTE 1.7 + AOD 2 04 Jul 09:56:40 10:00:54 59° 283° (WNW) 10:05:06 437.475
